Showing default

CENTISPACE-1 S11, 62580

Orbit data source: Space-Track

CENTISPACE-1 S11, 62580 is a payload satellite owned by Centispace (CN) in LEO that was launched on Mon, 13 Jan 2025 UTC via a JIELONG-3 launch vehicle from the Yellow Sea Launch Area, China (YSLA). Payload-class satellites include a variety of spacecraft equipped with specific instruments for various scientific and technological missions. These include communications satellites like Starlink; space stations such as the ISS; scientific satellites like the Hubble; Earth observation satellites from companies like Planet Labs, Umbra, and HawkEye 360; GPS; miniature CubeSats for education and research; and military/defense satellites.

Loading next visibility...
Identifier
62580, 2025-007F
Orbit
LEO
Country
Flag of CNCN / PRC
Related business
Manufacturer
DFH Shenzhen
Mission
Operational Commercial Nav/Com
Bus & Motor
WK01, Unknown motor
Mass
140 kg wet, 140 kg dry
Launch date (UTC)
2025-01-13 (11 months ago)
Launch vehicle
JIELONG-3
Launch site
Yellow Sea Launch Area, China (YSLA)
Object type
Payload
Rocket body
Debris
Shape & HBR
Box + 2 Pan, 1.0 m
Radar Cross Section
0.833 m², Medium (>0.1 m² and < 1m²)

Expand to show TLE details & history
Last TLE update: 13 hours ago

TLE from 13 hours ago
0 CENTISPACE-1 S11
1 62580U 25007F   25351.73611617  .00000562  00000-0  35617-3 0  9991
2 62580  54.9763 215.5706 0009155 266.0968  93.8958 14.16739601 49508
Epoch: 2025-12-17T17:40Z
TLE epoch observation values (Epoch: 2025-12-17T17:40:00.437Z)
Latitude
-0.00002°
Longitude
-136.03293°
Altitude
837.894 km
Speed
7.435 km/s
True Right ascension
14h 22m 16s
True Declination
0° 00' 00"
Sunlit
Object was in daylight at epoch
Visualization orbit readout
Latitude
Unknown
Longitude
Unknown
Altitude
Unknown
Speed
Unknown
Apparent Right ascension
Unknown
Apparent Declination
Unknown
Sunlit
N/A
Visualization observer readout
Local Sidereal Time
05:31:41
Azimuth
Unknown
Elevation
Unknown
Doppler factor
Unknown
Orbital elements
Apogee altitude
842.973 km
Perigee altitude
829.764 km
Semi-major axis
7,214.506 km
Eccentricity
0.00092
Inclination
54.9763°
RAAN
215.5706°
Arg. of periapsis
266.0968°
True anomaly
94.00046°
Mean anomaly
93.8958°
Eccentric anomaly
93.94813°
Mean motion
3.54188 °/min
Orbital period
101.64 mins
BSTAR
0.00035617
Loading maneuver chart data...
Computing Atmospheric mass density...
Loading historical data...
Loading historical data...
Loading historical data...
Loading historical data...
Loading historical data...
Loading historical data...
Loading historical data...

Documentation

Showing up to 5 results
|